Вернуться в каталог

STARLINK-30841

АктивенСвязьVLEO
NORAD 58208·PAYLOAD·🇺🇸 United States

Запущен Nov 3, 2023 с Cape Canaveral Space Force Station

Loading…

Ближайшие Пролёты (ближайшие 24 часа)

TLE

СвежийSource: CelesTrak SupGP

Эпоха: Sep 14, 2026, 22:13 UTC

1 58208C 23170C   26257.92618056  .00001882  00000+0  68165-4 0  2570
2 58208  43.0015 205.7476 0001245 259.4032 253.8212 15.27578405    14

Отслеживайте STARLINK-30841 в реальном времени с AllMySat

Download on the App Store